Weather History for KMUI - September, 2013

Change the Weather History Date:

Thursday, September 26, 2013

  Actual Average Record
Temperature  
Mean Temperature 58 °F -  
Max Temperature 74 °F 68 °F 89 °F (2007)
Min Temperature 44 °F 52 °F 42 °F (2001)
Degree Days  
Heating Degree Days 6    
Growing Degree Days 8 (Base 50)    
Moisture  
Dew Point 51 °F    
Average Humidity 76    
Maximum Humidity 99    
Minimum Humidity 44    
Precipitation  
Precipitation 0.00 in - - ()
Sea Level Pressure  
Sea Level Pressure 30.03 in    
Wind  
Wind Speed 1 mph (ENE)    
Max Wind Speed 6 mph    
Max Gust Speed -    
Visibility 10 miles    
Events Rain    
Averages and records for this station are not official NWS values.
T = Trace of Precipitation, MM = Missing Value Source: NWS Daily Summary

Daily Weather History Graph

Daily Weather History Graph

Search for Another Location

Airport or City:

Trip Planner

Search our weather history database for the weather conditions in past years. The results will help you decide how hot, cold, wet, or windy it might be!

Date:

Astronomy

Sep. 26, 2013 Rise Set
Actual Time 6:57 AM EDT 6:56 PM EDT
Civil Twilight 6:30 AM EDT 7:23 PM EDT
Nautical Twilight 5:59 AM EDT 7:55 PM EDT
Astronomical Twilight 5:26 AM EDT 8:27 PM EDT
Moon 11:51 PM EDT (9/26) 1:49 PM EDT (9/26)
Length of Visible Light 12h 52m
Length of Day
11h 58m
Waning Gibbous, 55% of the Moon is Illuminated
Sep 26
Waning Gibbous
Sep 26
Last Quarter
Oct 4
New
Oct 11
First Quarter
Oct 18
Full

Hourly Weather History & Observations

Time (EDT) Temp. Dew Point Humidity Pressure Visibility Wind Dir Wind Speed Gust Speed Precip Events Conditions
12:58 AM 48.0 °F 47.7 °F 99% 29.97 in 10.0 mi Calm Calm - N/A   Clear
1:58 AM 48.7 °F 48.4 °F 99% 29.97 in 10.0 mi Calm Calm - N/A   Clear
2:58 AM 48.0 °F 47.7 °F 99% 29.97 in 10.0 mi Calm Calm - N/A   Clear
3:58 AM 46.6 °F 46.4 °F 99% 29.97 in 10.0 mi Calm Calm - N/A   Clear
4:58 AM 48.2 °F 48.0 °F 99% 29.98 in 10.0 mi Calm Calm - N/A   Clear
5:58 AM 45.5 °F 45.1 °F 99% 29.99 in 10.0 mi Calm Calm - N/A   Clear
6:58 AM 44.4 °F 44.2 °F 99% 30.01 in 10.0 mi Calm Calm - N/A   Clear
7:58 AM 46.2 °F 45.9 °F 99% 30.02 in 10.0 mi Calm Calm - N/A   Clear
8:58 AM 53.2 °F 51.6 °F 94% 30.04 in 10.0 mi Calm Calm - N/A   Clear
9:58 AM 63.3 °F 51.8 °F 66% 30.05 in 10.0 mi ENE 4.6 mph - N/A   Mostly Cloudy
10:48 AM - - N/A% - - East 3.5 mph - N/A   Unknown
10:49 AM 64.4 °F 51.8 °F 64% 30.04 in 10.0 mi ENE 2.3 mph - N/A Rain Light Rain
10:58 AM 65.3 °F 51.4 °F 61% 30.05 in 10.0 mi Variable 3.5 mph - N/A   Mostly Cloudy
11:58 AM 68.0 °F 51.3 °F 55% 30.05 in 10.0 mi Variable 2.3 mph - N/A   Scattered Clouds
12:05 PM 68.0 °F 51.8 °F 56% 30.04 in 10.0 mi Variable 1.2 mph - N/A   Scattered Clouds
12:58 PM 69.8 °F 51.8 °F 53% 30.04 in 10.0 mi Variable 2.3 mph - N/A   Scattered Clouds
1:58 PM 72.9 °F 50.0 °F 44% 30.02 in 10.0 mi East 5.8 mph - N/A   Scattered Clouds
2:58 PM 73.2 °F 50.4 °F 44% 30.02 in 10.0 mi Calm Calm - N/A   Partly Cloudy
3:58 PM 72.7 °F 50.2 °F 45% 30.02 in 10.0 mi North 4.6 mph - N/A   Mostly Cloudy
4:58 PM 72.7 °F 50.0 °F 45% 30.02 in 10.0 mi Variable 1.2 mph - N/A   Mostly Cloudy
5:58 PM 69.3 °F 57.6 °F 66% 30.04 in 10.0 mi Calm Calm - N/A   Overcast
6:58 PM 66.4 °F 54.9 °F 66% 30.05 in 10.0 mi Variable 1.2 mph - N/A   Overcast
7:58 PM 62.4 °F 55.4 °F 78% 30.06 in 10.0 mi Calm Calm - N/A   Mostly Cloudy
8:58 PM 59.5 °F 54.5 °F 83% 30.07 in 10.0 mi NE 2.3 mph - N/A   Overcast
9:58 PM 60.8 °F 56.3 °F 85% 30.08 in 10.0 mi Calm Calm - N/A   Overcast
10:58 PM 60.3 °F 57.0 °F 89% 30.09 in 10.0 mi Calm Calm - N/A   Overcast
11:58 PM 60.6 °F 56.8 °F 87% 30.10 in 10.0 mi Calm Calm - N/A   Overcast